Location: Ferma
(41.9500°N, 44.5167°E)
Time: 19:21:46
(UTC+00:00)

BREEZE-M DEB (TANK) - Pass Details

Date: 04 June 2022
Orbit: 338 x 14778 km, 49.6° (Epoch: 25 June)

Event Time Altitude Azimuth Distance (km) Brightness Sun altitude
Rises 16:43:32 0° 313° (NW) 17,479 13.0 -2.5°
Reaches altitude 10° 17:03:20 10° 312° (NW) 18,015 12.5 -5.5°
Maximum altitude 18:41:09 35° 275° (W) 13,402 10.3 -18.0°
Drops below altitude 10° 19:24:07 10° 217° (SW) 8,229 8.7 -21.8°
Sets 19:29:35 0° 206° (SSW) 7,957 8.5 -22.2°
